Regional Weather Roundup
Issued by NWS

Home | Current Version | Previous Version | Text Only | Print | Product List | Glossary Off
Versions: 1 2 3 4 5 6 7 8 9 10 11 12 13 14 15 16 17 18 19 20 21 22 23 24 25 26 27 28 29 30 31 32 33 34 35 36 37 38 39 40 41 42 43 44 45 46 47 48 49 50

241
ASUS45 KBOU 270710
RWRCO

WEATHER ROUNDUP FOR COLORADO
NATIONAL WEATHER SERVICE DENVER/BOULDER CO
100 AM MDT TUE SEP 27 2016

NOTE: "FAIR" INDICATES FEW OR NO CLOUDS BELOW 12000 FEET WITH NO
SIGNIFICANT WEATHER AND/OR OBSTRUCTIONS TO VISIBILITY.

COZ001>005-013-030-031-270800-
...NORTHWEST COLORADO...

CITY           SKY/WX    TMP DP  RH WIND       PRES   REMARKS
CRAIG          FAIR      40  34  79 CALM      30.37S
HAYDEN         FAIR      45  30  57 E10       30.37F
MEEKER         FAIR      41  36  82 NE5       30.37S
MOUNT WERNER   NOT AVBL
STEAMBOAT SPGS FAIR      43  34  68 CALM      30.40S
WALDEN           N/A     34  28  80 SE9       30.47F WCI  26
$$

COZ006>008-011-270800-
...WEST CENTRAL VALLEYS...

CITY           SKY/WX    TMP DP  RH WIND       PRES   REMARKS
GRAND JUNCTION FAIR      55  40  56 SE5       30.26S
MONTROSE       FAIR      51  37  58 SE10      30.34S
EAGLE          FAIR      45  30  57 SE3       30.40S
RIFLE          FAIR      50  41  71 CALM      30.32S
DELTA          NOT AVBL
NUCLA          NOT AVBL
$$

COZ017>023-064>068-270800-
...SOUTHWEST COLORADO...

CITY           SKY/WX    TMP DP  RH WIND       PRES   REMARKS
DURANGO        FAIR      43  35  73 NE7       30.40R
CORTEZ         FAIR      44  38  79 E5        30.33S
PAGOSA SPRINGS FAIR      41  35  77 CALM      30.46S
TELLURIDE      FAIR      46  36  68 SE6       30.52F
WOLF CREEK PAS FAIR      39  28  65 MISG      30.69S
$$

COZ009-010-012-014-032>034-037-058>063-270800-
...CENTRAL COLORADO...

CITY           SKY/WX    TMP DP  RH WIND       PRES   REMARKS
ASPEN          FAIR      44  31  60 SW6       30.42F
BUENA VISTA    FAIR      38  24  56 W3        30.47S
COPPER MTN     FAIR      45  23  42 SE3       30.66F
BERTHOUD PASS  FAIR      36  23  60 N6        30.68F
COTTONWOOD PAS FAIR      50  21  32 SW5       30.56S
GUNNISON       FAIR      41  32  70 CALM      30.45S
KREMMLING      FAIR      36  28  75 CALM      30.45S
LEADVILLE      FAIR      34  22  61 E3        30.54F
MONARCH PASS   FAIR      43  19  39 S9        30.77S
SALIDA         FAIR      46  27  47 W6        30.52S
SUNLIGHT       FAIR      45  30  57 CALM      30.62S
WILKERSON PASS FAIR      41  23  48 SW3       30.65F
$$

COZ069>075-270800-
...SAN LUIS VALLEY/SANGRE DE CRISTO MOUNTAINS...

CITY           SKY/WX    TMP DP  RH WIND       PRES   REMARKS
ALAMOSA        FAIR      41  32  70 SE8       30.41S
LA VETA PASS   FAIR      45  30  57 MISG      30.55F
SAGUACHE       NOT AVBL
$$

COZ035-036-038>040-270800-
...NORTHERN COLORADO FRONT RANGE...

CITY           SKY/WX    TMP DP  RH WIND       PRES   REMARKS
DENVER INTL AP FAIR      51  29  42 S13       30.30F
DMNS CITY PARK   N/A     52  38  57 W5        30.31F
AURORA         CLEAR     51  32  48 SW5       30.33S
FRONT RANGE AP NOT AVBL
ERIE MUNI ARPT FAIR      47  33  57 CALM      30.31F
BOULDER MUN AP FAIR      55  34  44 W6        30.31F
CENTENNIAL     FAIR      50  30  46 CALM      30.33S
BROOMFIELD     FAIR      55  32  41 NW10      30.32F
FORT COLLINS   FAIR      55  43  62 CALM      30.31F
LONGMONT       FAIR      54  35  47 NW7       30.32F
$$

COZ041-046-047-076>085-087-088-270800-
...PIKES PEAK/PALMER DIVIDE AND SOUTHERN FOOTHILLS...

CITY           SKY/WX    TMP DP  RH WIND       PRES   REMARKS
COLO. SPRINGS  FAIR      47  30  51 N7        30.37F
A. F. ACADEMY  FAIR      41  29  61 N9        30.37F
SCHRIEVER AFB  NOT AVBL
ELLICOTT       NOT AVBL
FALCON         FAIR      45  30  56 CALM      30.40S
FORT CARSON    FAIR      48  31  50 NW8       30.33F
LIMON          FAIR      41  28  60 CALM      30.32F
MONUMENT HILL  FAIR      43  28  56 SW8       30.40F
TRINIDAD       FAIR      48  34  58 NW8       30.32S
$$

COZ042>045-048>051-090-091-270800-
...NORTHEAST COLORADO...

CITY           SKY/WX    TMP DP  RH WIND       PRES   REMARKS
GREELEY ARPT   FAIR      48  37  66 NW5       30.30F
AKRON          FAIR      52  36  54 S7        30.27F
BURLINGTON     FAIR      48  39  71 W8        30.26F
WRAY           NOT AVBL
STERLING       FAIR      43  37  81 CALM      30.24F HAZE
HOLYOKE        FAIR      48  39  71 W8        30.23S
FORT MORGAN    FAIR      51  36  54 SW5       30.28S
$$

COZ086-089-092>099-270800-
...SOUTHEAST COLORADO...

CITY           SKY/WX    TMP DP  RH WIND       PRES   REMARKS
PUEBLO         FAIR      52  38  58 W5        30.28F
LA JUNTA       FAIR      52  38  58 N7        30.24F
LAMAR          FAIR      49  34  56 CALM      30.21F
SPRINGFIELD    NOT AVBL
$$




USA.gov is the U.S. government's official web portal to all federal, state and local government web resources and services.